Location: Carrières
(48.9495°N, 2.0407°E)
Time: 20:45:00
(UTC+00:00)

Transit 2A Rocket - Pass Details

Date: 23 April 2024
Orbit: 585 x 908 km, 66.7° (Epoch: 18 May)

Event Time Altitude Azimuth Distance (km) Brightness Sun altitude
Rises 19:43:01 0° 321° (NW) 3,307 9.8 -7.7°
Reaches altitude 10° 19:45:25 10° 316° (NW) 2,419 9.1 -8.1°
Maximum altitude 19:50:51 52° 242° (WSW) 1,066 6.0 -8.8°
Drops below altitude 10° 19:56:36 10° 168° (SSE) 2,558 7.3 -9.6°
Enters shadow 19:58:24 - 164° (SSE) 3,213 7.8 -9.9°
Sets 19:59:13 0° 163° (SSE) 3,512 - -10.0°
